sat.trackr.live / text

‹ back to catalog

STARLINK-32643

NORAD 62233 · 2024-231R

PAYLOAD ACTIVE UNKNOWN

§ Identity

Operator
Country
US
Launch date
2024-12-05
Launch site
AFWTR
Launch vehicle
Mass (kg)
RCS (m²)

Purposes: comms

External: N2YO · Heavens-Above · Gunter

§ Orbital elements

Epoch: 2026-09-21T15:42:09.250272Z

Period
94.01 min
Inclination
53.1600°
Eccentricity
0.0001127
Mean motion
15.31709342 rev/d
Perigee alt
469.9 km
Apogee alt
471.5 km
Semi-major
6,848.8 km
B*
5.1039e-4
RAAN
15.0363°
Arg perigee
77.1558°
Mean anomaly
282.9569°
Rev number
10,196

§ Raw data

STARLINK-326431 62233U 24231R   26264.65427373  .00015510  00000+0  51039-3 0  99972 62233  53.1600  15.0363 0001127  77.1558 282.9569 15.31709342101968

JSON: /api/v1/satellites/62233 · /tle

For live sub-satellite position, see the globe view (requires WebGL).

§ Visibility from observer

Set your observer location to see the next 7 days of passes ≥ 10°. The values pass through the URL so the page stays shareable.

No JS? Fill the form by hand. The geolocation button needs JavaScript.